Change the Weather History Date:

Tuesday, April 2, 2013

  Actual Average Record
Temperature  
Mean Temperature 34 °F -  
Max Temperature 39 °F 47 °F 76 °F (1986)
Min Temperature 29 °F 31 °F 21 °F (1977)
Degree Days  
Heating Degree Days 32    
Moisture  
Dew Point 9 °F    
Average Humidity 36    
Maximum Humidity 46    
Minimum Humidity 26    
Precipitation  
Precipitation 0.00 in - - ()
Sea Level Pressure  
Sea Level Pressure 29.81 in    
Wind  
Wind Speed 14 mph (West)    
Max Wind Speed 24 mph    
Max Gust Speed 32 mph    
Visibility 10 miles    
Events      
Averages and records for this station are not official NWS values.
T = Trace of Precipitation, MM = Missing Value Source: NWS Daily Summary

Daily Weather History Graph

Daily Weather History Graph

Search for Another Location

Airport or City:

Trip Planner

Search our weather history database for the weather conditions in past years. The results will help you decide how hot, cold, wet, or windy it might be!

Date:

Astronomy

Apr. 02, 2013 Rise Set
Actual Time 6:23 AM EDT 7:11 PM EDT
Civil Twilight 5:54 AM EDT 7:39 PM EDT
Nautical Twilight 5:20 AM EDT 8:14 PM EDT
Astronomical Twilight 4:44 AM EDT 8:49 PM EDT
Moon 1:19 AM EDT (4/2) 11:04 AM EDT (4/2)
Length of Visible Light 13h 45m
Length of Day
12h 47m
Waning Gibbous, 56% of the Moon is Illuminated
Apr 2
Waning Gibbous
Apr 3
Last Quarter
Apr 10
New
Apr 18
First Quarter
Apr 25
Full

Hourly Weather History & Observations

Time (EDT) Temp. Windchill Dew Point Humidity Pressure Visibility Wind Dir Wind Speed Gust Speed Precip Events Conditions
12:55 AM 33.1 °F 23.0 °F 7.7 °F 35% 29.77 in 10.0 mi WNW 15.0 mph 26.5 mph N/A   Clear
1:55 AM 31.6 °F 23.7 °F 9.1 °F 39% 29.78 in 10.0 mi West 9.2 mph - N/A   Clear
2:55 AM 30.9 °F 22.2 °F 10.0 °F 42% 29.78 in 10.0 mi WNW 10.4 mph - N/A   Clear
3:55 AM 30.7 °F 21.4 °F 11.8 °F 46% 29.78 in 10.0 mi West 11.5 mph - N/A   Clear
4:55 AM 30.0 °F 20.0 °F 7.9 °F 39% 29.79 in 10.0 mi West 12.7 mph 24.2 mph N/A   Clear
5:55 AM 29.7 °F 19.1 °F 8.6 °F 41% 29.80 in 10.0 mi West 13.8 mph - N/A   Clear
6:55 AM 29.7 °F 19.6 °F 8.2 °F 41% 29.82 in 10.0 mi WSW 12.7 mph - N/A   Clear
7:55 AM 31.8 °F 22.3 °F 9.3 °F 39% 29.83 in 10.0 mi WSW 12.7 mph 21.9 mph N/A   Partly Cloudy
8:55 AM 33.4 °F 23.9 °F 7.7 °F 34% 29.84 in 10.0 mi West 13.8 mph 25.3 mph N/A   Partly Cloudy
9:55 AM 35.2 °F 24.7 °F 6.1 °F 30% 29.83 in 10.0 mi WSW 18.4 mph 27.6 mph N/A   Mostly Cloudy
10:55 AM 37.2 °F 28.7 °F 5.7 °F 27% 29.83 in 10.0 mi WSW 13.8 mph 25.3 mph N/A   Mostly Cloudy
11:55 AM 38.5 °F 29.2 °F 5.9 °F 26% 29.81 in 10.0 mi West 17.3 mph 27.6 mph N/A   Mostly Cloudy
12:55 PM 38.8 °F 29.4 °F 6.6 °F 26% 29.79 in 10.0 mi WSW 18.4 mph 26.5 mph N/A   Mostly Cloudy
1:55 PM 38.1 °F 28.1 °F 6.6 °F 27% 29.78 in 10.0 mi West 19.6 mph 29.9 mph N/A   Mostly Cloudy
2:55 PM 36.7 °F 27.2 °F 10.8 °F 34% 29.78 in 10.0 mi West 16.1 mph 25.3 mph N/A   Mostly Cloudy
3:55 PM 37.6 °F 27.4 °F 9.9 °F 32% 29.77 in 10.0 mi WSW 19.6 mph 32.2 mph 0.00 in   Mostly Cloudy
4:55 PM 37.0 °F 27.4 °F 9.7 °F 32% 29.77 in 10.0 mi West 17.3 mph 29.9 mph N/A   Scattered Clouds
5:55 PM 36.5 °F 26.7 °F 9.3 °F 32% 29.81 in 10.0 mi West 17.3 mph 31.1 mph N/A   Scattered Clouds
6:55 PM 35.1 °F 23.0 °F 9.9 °F 35% 29.82 in 10.0 mi WSW 24.2 mph 32.2 mph N/A   Mostly Cloudy
7:55 PM 33.6 °F 23.3 °F 12.4 °F 42% 29.85 in 10.0 mi West 16.1 mph 21.9 mph N/A   Clear
8:55 PM 32.5 °F 24.2 °F 11.3 °F 41% 29.88 in 10.0 mi WSW 10.4 mph - N/A   Clear
9:55 PM 32.4 °F 24.0 °F 10.6 °F 40% 29.88 in 10.0 mi WSW 10.4 mph 19.6 mph N/A   Clear
10:55 PM 31.6 °F 22.6 °F 9.7 °F 40% 29.88 in 10.0 mi WSW 11.5 mph - N/A   Clear
11:55 PM 30.9 °F 22.2 °F 10.9 °F 43% 29.88 in 10.0 mi WSW 10.4 mph - N/A   Clear